GW2393 Weather Reports


time (UTC)temp
C
wind
direction
speed
KPH
gust
KPH
rain 1hr
cm
rain 24hr
cm
rain mn
cm
humidity
%
barometer
mb
20260506233014 12 112 8.0 27.4 0.15 1.85 1.85 1 1006.8
20260506231506 14 119 0.0 11.3 0.10 1.80 1.80 1 1006.5
20260506230054 14 271 6.4 14.5 0.03 1.73 1.73 1 1006.0
20260506224550 14 297 4.8 19.3 0.00 1.70 1.70 1 1005.9
20260506223042 14 285 8.0 19.3 0.00 1.70 1.70 1 1005.6
20260506221540 14 333 3.2 16.1 0.00 1.70 1.70 1 1005.6
20260506220056 14 278 9.7 19.3 0.00 1.70 1.70 1 1005.4
20260506214538 13 292 8.0 19.3 0.00 1.70 1.70 1 1005.2
20260506213009 13 288 6.4 20.9 0.03 1.70 1.70 1 1005.1
20260506211546 13 305 8.0 22.5 0.05 1.70 1.70 1 1005.0
20260506210013 13 53 11.3 24.1 0.05 1.70 1.70 1 1004.9
20260506204551 13 227 12.9 20.9 0.05 1.70 1.70 1 1004.9
20260506203029 13 127 6.4 17.7 0.03 1.68 1.68 1 1004.8
20260506201600 13 309 6.4 24.1 0.00 1.65 1.65 1 1004.9
20260506200006 13 312 6.4 24.1 0.03 1.65 1.65 1 1005.1
20260506194522 13 298 11.3 45.1 0.05 1.65 1.65 1 1005.2
20260506193041 13 270 16.1 35.4 0.13 1.65 1.65 1 1005.2
20260506191608 13 317 12.9 29.0 0.18 1.65 1.65 1 1005.1
20260506190021 13 274 11.3 35.4 0.25 1.63 1.63 1 1005.4
20260506184549 13 301 11.3 29.0 0.43 1.60 1.60 1 1005.7
20260506183020 13 288 16.1 27.4 0.56 1.52 1.52 1 1005.9
20260506181601 13 283 12.9 30.6 0.58 1.45 1.45 1 1005.9
20260506180016 13 309 16.1 33.8 0.56 1.37 1.37 1 1005.9
20260506174515 13 310 16.1 33.8 0.36 1.14 1.14 1 1005.7
20260506173010 13 260 14.5 37.0 0.23 0.97 0.97 1 1005.8
20260506171504 13 272 20.9 37.0 0.25 0.89 0.89 1 1005.7
20260506170053 13 242 14.5 32.2 0.28 0.81 0.81 1 1005.7
20260506164548 13 274 11.3 24.1 0.33 0.79 0.79 1 1006.0
20260506163011 13 266 12.9 20.9 0.36 0.71 0.71 1 1006.2
20260506161504 13 281 9.7 25.7 0.33 0.64 0.64 1 1006.5
20260506160053 13 340 11.3 22.5 0.33 0.53 0.53 1 1006.8
20260506154549 13 320 8.0 25.7 0.33 0.46 0.46 1 1006.9
20260506153040 13 291 11.3 22.5 0.30 0.38 0.38 1 1006.8
20260506151535 13 337 4.8 22.5 0.28 0.30 0.30 2 1007.1
20260506150019 13 318 6.4 17.7 0.18 0.18 0.18 14 1007.0
20260506144515 13 344 8.0 19.3 0.13 0.13 0.13 26 1007.2
20260506143007 14 259 9.7 14.5 0.08 0.08 0.08 42 1007.3
20260506141603 14 298 11.3 20.9 0.03 0.03 0.03 58 1007.4
20260506140021 14 238 9.7 25.7 0.00 0.00 0.00 70 1007.5
20260506134515 15 301 12.9 25.7 0.00 0.00 0.00 72 1007.5
20260506133010 15 303 12.9 27.4 0.00 0.00 0.00 74 1007.0